FENGYUN 1C DEB, 30715

Orbit data source: Space-Track

FENGYUN 1C DEB, 30715 is space debris in SSO originally from a launch on Mon, 10 May 1999 UTC launched from the Taiyaun Space Center, China (TSC). Fengyun 1C debris stems from the Chinese weather satellite Fengyun-1C, which was intentionally destroyed by a Chinese anti-satellite missile in 2007. This event dramatically increased the amount of space debris, with thousands of trackable fragments posing hazards to satellites and human spaceflight. The Fengyun 1C debris cloud has become a focal point in discussions about space sustainability and the need for international regulations to prevent the creation of new debris.

Loading next visibility...
Identifier
30715, 1999-025ARZ
Orbit
SSO
Country
Flag of CNCN / PRC
Related business
Manufacturer
Unknown
Mission
Spacecraft
Bus & Motor
Unknown
Mass
Unknown
Launch date (UTC)
1999-05-10 (27 years ago)
Launch vehicle
Unknown
Launch site
Taiyaun Space Center, China (TSC)
Object type
Payload
Rocket body
Debris
Shape & HBR
Unknown shape, 0.1 m
Radar Cross Section
Small (<0.1 m²)

Expand to show TLE details & history
Last TLE update: 23 hours ago

TLE from 23 hours ago
0 FENGYUN 1C DEB
1 30715U 99025ARZ 26120.70788082  .00002838  00000-0  14396-2 0  9998
2 30715  98.9624 195.6364 0067906 134.0246 226.6550 14.15601663981476
Epoch: 2026-04-30T16:59Z
TLE epoch observation values (Epoch: 2026-04-30T16:59:20.902Z)
Latitude
-0.00005°
Longitude
82.1487°
Altitude
876.993 km
Speed
7.396 km/s
True Right ascension
13h 02m 32s
True Declination
0° 00' 00"
Sunlit
Object was in full shadow at epoch
Visualization orbit readout
Latitude
Unknown
Longitude
Unknown
Altitude
Unknown
Speed
Unknown
Apparent Right ascension
Unknown
Apparent Declination
Unknown
Sunlit
N/A
Visualization observer readout
Local Sidereal Time
23:25:33
Azimuth
Unknown
Elevation
Unknown
Doppler factor
Unknown
Orbital elements
Apogee altitude
886.441 km
Perigee altitude
788.445 km
Semi-major axis
7,215.58 km
Eccentricity
0.00679
Inclination
98.9624°
RAAN
195.6364°
Arg. of periapsis
134.0246°
True anomaly
226.09239°
Mean anomaly
226.655°
Eccentric anomaly
226.37337°
Mean motion
3.54108 °/min
Orbital period
101.66 mins
BSTAR
0.0014396
Loading maneuver chart data...
Computing Atmospheric mass density...
Loading historical data...
Loading historical data...
Loading historical data...
Loading historical data...
Loading historical data...
Loading historical data...
Loading historical data...

Documentation

Showing up to 5 results
|